Location: Newark
(55.1225°N, 33.2808°E)
Time: 10:02:45
(UTC+00:00)

ISS - Visible Passes

Search period start: 16 September 2019 00:00
Search period end: 26 September 2019 00:00
Orbit: 411 x 421 km, 51.6° (Epoch: 16 September)

Date Brightness Start Highest point End Pass type
(mag) Time Alt. Az. Time Alt. Az. Time Alt. Az.
20 Sep -1.3 17:53:00 10° SSW 17:53:23 12° SSW 17:53:23 12° SSW visible
21 Sep -1.9 17:05:14 10° S 17:07:11 15° SSE 17:07:17 15° SE visible
21 Sep -0.8 18:40:12 10° SW 18:40:12 10° SW 18:40:12 10° SW visible
22 Sep -2.3 17:51:56 10° SW 17:53:55 25° SSW 17:53:55 25° SSW visible
23 Sep -2.5 17:03:46 10° SSW 17:06:32 24° SSE 17:07:30 21° SE visible
23 Sep -1.2 18:39:38 10° WSW 18:40:23 15° WSW 18:40:23 15° WSW visible
24 Sep -2.1 16:15:45 10° SSW 16:18:11 19° SSE 16:20:36 10° ESE visible
24 Sep -2.9 17:51:13 10° WSW 17:53:51 37° SSW 17:53:51 37° SSW visible
25 Sep -3.0 17:02:52 10° SW 17:05:57 35° SSE 17:07:14 25° ESE visible
25 Sep -1.3 18:39:09 10° WSW 18:40:07 17° WSW 18:40:07 17° WSW visible
